www.pogodaiklimat.ru

Погода и климат >> Архив погоды >> Россия >> Калмыкия >> Яшкуль


АРХИВ ПОГОДЫ в Яшкуле

Время (UTC), дата Ветер
(напр.,м/с)
 
Видим.   Явления Облачность Т
(С)
Тd
(С)
f
(%)
Тe
(С)
Тes
(С)
Комфортность P
(гПа)
Po
(гПа)
Тmin
(С)
Tmax
(С)
R
(мм)
R24
(мм)
S
(см)
21 12.10 ЮЗ 3 20 км 10/0
[Ac As]
+13.1 +4.7 57 +12 +12 тепло 1019.5 1020.3
00 13.10 З 4 20 км 10/0
[Ac As]
+13.5 +4.5 54 +12 +12 тепло 1019.4 1020.2
03 13.10 З 4 20 км 10/0
[Ac As]
+11.1 +9.6 90 +9 +9 по сезону 1019.7 1020.5 +11.1
06 13.10 З 5 20 км 9/0
[Ac trans]
+13.0 +9.0 77 +11 +12 по сезону 1020.3 1021.1
09 13.10 З 5 20 км 8/4 600 м
[Cu med, cong Ac trans Ci fib]
+17.1 +8.6 57 +16 +18 тепло 1019.1 1019.9
12 13.10 З 4 20 км 10/0
[Ac As]
+17.8 +9.9 60 +18 +18 тепло 1018.1 1018.9
15 13.10 Ю 1 20 км 10/0
[Ac As]
+15.7 +8.8 64 +16 +16 тепло 1018.0 1018.8 +18.3
18 13.10 З 1 20 км 10/0
[Ac As]
+14.6 +9.4 71 +15 +15 тепло 1017.8 1018.6
21 13.10 Ю 2 20 км 10/0
[Ac As]
+13.7 +8.0 68 +13 +13 тепло 1016.8 1017.7
00 14.10 Ю 2 20 км ясно +11.5 +7.0 74 +10 +10 тепло 1015.7 1016.5
03 14.10 ЮЗ 3 20 км 6/0
[Ac trans]
+10.2 +5.6 73 +8 +8 по сезону 1015.6 1016.5 +10.1
06 14.10 ЮЗ 4 20 км 8/0
[Ac trans]
+16.0 +6.1 52 +15 +16 тепло 1016.0 1016.8
09 14.10 ЮЗ 4 20 км 6/0
[Ac trans Ci sp]
+20.3 +5.2 37 +21 +24 комфорт 1014.4 1015.3
12 14.10 З 6-10
{11}
20 км 8/6 600 м
[Cb cap Ac trans]
+18.6 +7.3 48 +18 +19 тепло 1013.7 1014.5
15 14.10 З 5-10
{15}
20 км 10/8 600 м
[Cb cap Ac As]
+12.8 +11.4 91 +11 +11 по сезону 1015.3 1016.1 +21.8
18 14.10 З 3
{10}
10 км слабый ливневой дождь 10/10 600 м
[Cb calv]
+11.8 +10.5 92 +10 +10 по сезону 1015.1 1016.0
21 14.10 З 3 20 км 10/0
[]
+10.4 +8.6 89 +8 +8 по сезону 1015.2 1016.0
00 15.10 ЮЗ 2 20 км {ливн. осадки} 8/0
[Ac trans]
+8.9 +7.4 90 +7 +7 по сезону 1013.7 1014.5
03 15.10 ЮЗ 3 20 км {ливн. осадки} 8/0
[Ac trans]
+9.4 +7.7 89 +7 +7 по сезону 1014.1 1014.9 +8.7
06 15.10 ЮЗ 5 20 км ясно +11.0 +8.4 84 +8 +10 по сезону 1013.9 1014.7
09 15.10 З 6
{12}
20 км 8/8 600 м
[Cb calv]
+13.3 +6.9 65 +11 +12 по сезону 1013.3 1014.1
12 15.10 З 7-12
{14}
20 км 8/6 600 м
[Cb calv Ac trans]
+14.2 +2.4 45 +12 +12 прохладно 1011.9 1012.8
15 15.10 З 5
{13}
20 км 9/9 600 м
[Cb cap]
+10.8 +1.0 51 +8 +8 прохладно 1012.1 1012.9 +14.8
18 15.10 ЮЗ 4 20 км 10/0
[Ac As]
+9.4 +1.6 58 +7 +7 по сезону 1009.8 1010.6
21 15.10 Ю 6 10 км слабый дождь 10/10 300 м
[Frnb Ns]
+8.1 +7.0 93 +4 +4 прохладно 1004.9 1005.7
00 16.10 ЮЗ 4
{11}
10 км слабый дождь 10/10 300 м
[Frnb Ns]
+10.5 +9.4 93 +8 +8 по сезону 1000.6 1001.4
03 16.10 З 6
{11}
20 км {дождь} 10/0
[Ac As]
+8.5 +6.4 87 +4 +4 прохладно 1001.9 1002.8 +7.6 7
06 16.10 З 9-14
{15}
20 км {дождь} 8/6 600 м
[Cu med, cong Ac trans]
+10.5 +5.8 73 +7 +7 по сезону 1004.1 1004.9
09 16.10 З 10-16
{18}
20 км в посл. час дождь 10/8 600 м
[Cu med, cong Ac As]
+8.1 +3.0 70 +3 +3 очень
холодно
1006.1 1006.9
12 16.10 СЗ 9-13
{17}
20 км {дождь} 9/8 600 м
[Cu med, cong Ac trans]
+9.5 +1.1 56 +5 +5 очень
холодно
1008.5 1009.4
15 16.10 З 8-13
{15}
20 км {дождь} 9/6 600 м
[Cu med, cong Ac trans]
+8.4 +4.5 76 +4 +4 очень
холодно
1011.6 1012.5 +10.9 0.5
18 16.10 З 7-11
{13}
10 км слабый дождь 10/10 300 м
[Frnb Ns]
+7.0 +4.9 86 +2 +2 холодно 1012.7 1013.5
21 16.10 З 6-11
{13}
20 км {дождь} 10/6 600 м
[Cu med, cong Ac As]
+7.0 +4.1 82 +3 +3 прохладно 1013.0 1013.9
00 17.10 З 7-11
{13}
20 км {дождь} 10/0
[Ac As]
+7.3 +2.5 72 +3 +3 по сезону 1013.8 1014.7
03 17.10 З 8-13
{14}
20 км {дождь} 10/0
[Ac As]
+6.9 +1.8 70 +2 +2 прохладно 1014.4 1015.3 +6.6 0.3
06 17.10 З 7-13
{15}
20 км 10/0
[Ac As]
+7.6 +2.2 69 +3 +3 прохладно 1015.9 1016.8
09 17.10 З 8-13
{14}
20 км 10/6 300 м
[St Ac As]
+10.2 +0.8 52 +7 +7 прохладно 1016.3 1017.2
12 17.10 З 8-12
{15}
20 км 8/0
[Ac trans]
+10.2 +1.7 56 +7 +7 очень
холодно
1016.1 1017.0
15 17.10 З 1
{12}
20 км 10/0
[Ac As]
+9.3 +4.0 69 +9 +9 прохладно 1016.5 1017.4 +11.3
18 17.10 СЗ 2 20 км ясно +9.2 +5.7 79 +8 +8 по сезону 1016.2 1017.1
21 17.10 З 4 20 км 10/0
[Ac As]
+10.8 +7.5 80 +8 +8 по сезону 1017.0 1017.8
00 18.10 З 4 20 км 10/0
[Ac As]
+9.3 +7.2 87 +6 +6 по сезону 1018.4 1019.3
03 18.10 З 4 20 км 10/0
[Ac As]
+10.0 +7.6 85 +7 +7 по сезону 1020.6 1021.4 +8.9
06 18.10 СЗ 6 20 км 10/0
[Ac As]
+10.9 +7.3 78 +8 +8 по сезону 1023.0 1023.9
09 18.10 З 6 20 км 8/0
[Ac trans]
+13.7 +5.6 58 +12 +13 по сезону 1023.3 1024.1
12 18.10 СЗ 3 20 км 10/0
[Ac As]
+14.7 +5.5 54 +14 +15 по сезону 1023.0 1023.8
15 18.10 ЮЗ 2 20 км 10/0
[Ac As]
+10.8 +5.9 72 +10 +10 по сезону 1023.4 1024.3 +14.8
18 18.10 ЮЗ 2 20 км 8/0
[Ac trans]
+9.4 +5.9 79 +8 +8 по сезону 1023.1 1024.0
21 18.10 ЮЗ 2 20 км ясно +7.9 +5.4 84 +6 +6 по сезону 1022.7 1023.6
00 19.10 Ю 3 20 км ясно +7.7 +5.9 88 +5 +5 по сезону 1022.0 1022.9
03 19.10 ЮЗ 2 4000 м дымка 10/0
[Ac As]
+6.8 +6.2 96 +4 +4 по сезону 1021.9 1022.8 +6.6
06 19.10 Ю 2 500 м туман ?/? +8.8 +8.3 97 +7 +7 по сезону 1022.2 1023.0
09 19.10 З 2 4000 м в посл. час туман 10/0
[Ac As]
+13.1 +12.6 97 +12 +14 по сезону 1021.3 1022.2
12 19.10 ЮЗ 3 20 км {туман} 10/6 300 м
[St Ac As]
+16.8 +11.8 72 +17 +17 тепло 1019.8 1020.7
15 19.10 Ю 2 20 км {туман} 10/6
[St Ac As]
+15.1 +11.4 79 +15 +15 тепло 1019.7 1020.5 +17.1

 

Местоположение метеостанции Яшкуль (Калмыкия, Россия): широта 46.18 долгота 45.35 высота над уровнем моря -7 м.

В архиве по умолчанию представлена погода в Яшкуле за последнюю неделю. Архивные данные за месяц целиком и за предыдущие месяцы, начиная с января 2011 года, Вы можете получить, выбрав интересующий диапазон дат из раскрывающегося списка и нажав кнопку "Ввод!".

Внимание! Время в таблицах - всемирное. Для получения местного времени необходимо прибавить поправку, которая в Яшкуле равна 3 ч.

Смотрите также архив погоды в соседних городах и на ближайших метеорологических станциях:

Погода в Утте (Калмыкия, Россия) (56 км)
Погода в Ики-Буруле (Калмыкия, Россия) (70 км)
Погода в Элисте (Калмыкия, Россия) (81 км)
Погода в Комсомольском (Калмыкия, Россия) (106 км)
Погода в Арзгире (Ставропольский край, Россия) (124 км)
Погода в Юсте (Калмыкия, Россия) (129 км)
Погода в Ремонтном (Ростовская область, Россия) (136 км)
Погода в Кетченерах (Калмыкия, Россия) (140 км)
Погода в Лимане (Астраханская область, Россия) (151 км)
Погода в Дивном (Ставропольский край, Россия) (157 км)

Пояснения к столбцам:

Ветер - указаны скорость ветра в м/с - средняя за 10 мин, порывы в срок и между сроками (в фигурных скобках) и направление, откуда дует ветер: С - северный, СВ - северо-восточный, В - восточный, ЮВ - юго-восточный, Ю - южный, ЮЗ - юго-западный, З - западный, СЗ - северо-западный.
Видимость - горизонтальная дальность видимости в метрах или километрах. При видимости от 1 до 10 км при отсутствии осадков обычно наблюдается дымка, при ухудшении видимости до 1 км и менее - туман. В сухую погоду видимость может ухудшаться дымом, пылью или мглою.
Явления - указаны атмосферные явления, наблюдавшиеся в срок или в последний час перед сроком; фигурными скобками обозначены явления, наблюдавшиеся между сроками (за 1-3 часа до срока); квадратными скобками обозначены град или гололедные отложения с указанием их диаметра в мм.
Облачность - указаны через наклонную черту общая и нижняя облачность в баллах и высота нижней границы облаков в метрах; квадратными скобками обозначены формы облаков: Ci - перистые, Cs - перисто-слоистые, Cc - перисто-кучевые, Ac - высококучевые, As - высокослоистые, Sc - слоисто-кучевые, Ns - слоисто-дождевые, Cu - кучевые, Cb - кучево-дождевые. Подробнее классификацию облаков см. в Атласе облаков (PDF).
T - Температура воздуха - температура, измеренная на высоте 2 м над землей.
Td - Температура точки росы - температура, при понижении до которой содержащийся в воздухе водяной пар достигнет насыщения.
f - Относительная влажность воздуха - влажноcть воздуха, измеренная на высоте 2 м над землей.
Te - Эффективная температура - температура, которую ощущает одетый по сезону человек в тени. Характеристика душности погоды. При расчете учитывается влияние влажности воздуха и скорости ветра на теплоощущения человека.
Tes - Эффективная температура на солнце - температура, которую ощущает человек, с поправкой на солнечный нагрев. Характеристика знойности погоды. Зависит от высоты солнца над горизонтом, облачности и скорости ветра. Ночью, в пасмурную погоду, а также при ветре 12 м/с и более поправка равна нулю.
P - Атмосферное давление - приведенное к уровню моря атмосферное давление.
Po - Атмосферное давление - измеренное на уровне метеостанции атмосферное давление.
Tmin - Минимальная температура - минимум температуры воздуха на высоте 2 м над землей.
Tmax - Максимальная температура - максимум температуры воздуха на высоте 2 м над землей.
R - Количество осадков - Количество выпавших осадков за период времени, мм. При наведении курсора мыши на число - период времени, за который выпало указанное количество осадков.
R24 - Количество осадков - Количество выпавших осадков за 24 часа, мм.
S - Снежный покров - Высота снежного покрова, см. При наведении курсора мыши на число - состояние снежного покрова и степень покрытия местности в баллах.